Regional Weather Roundup
Issued by NWS Albany, NY

Home | Current Version | Previous Version | Text Only | Print | Product List | Glossary On
Versions: 1 2 3 4 5 6 7 8 9 10 11 12 13 14 15 16 17 18 19 20 21 22 23 24 25 26 27 28 29 30 31 32 33 34 35 36 37 38 39 40 41 42 43 44 45 46 47 48 49 50
000
ASUS41 KALY 290610
RWRALY

NEW YORK STATE HOURLY WEATHER ROUNDUP
NATIONAL WEATHER SERVICE ALBANY NY
200 AM EDT FRI AUG 29 2014

NOTE: "FAIR" INDICATES FEW OR NO CLOUDS BELOW 12,000 FEET WITH NO
SIGNIFICANT WEATHER AND/OR NO OBSTRUCTIONS TO VISIBILITY.

NYZ032-033-038>043-046>054-057>066-NYZ062>081-290700-
EAST


CITY           SKY/WX    TMP DP  RH WIND       PRES   REMARKS
ALBANY         FAIR      55  50  83 CALM      30.09S
GLENS FALLS    FAIR      60  49  66 N7        30.08R
POUGHKEEPSIE   FAIR      53  51  93 E3        30.09R
NEWBURGH       CLEAR     55  50  82 CALM      30.11S
MONTGOMERY     FAIR      51  49  92 CALM      30.10R
WHITE PLAINS   FAIR      61  49  64 N9        30.07S
ISLIP          FAIR      65  52  62 N7        30.05R
NEW YORK CITY  FAIR      67  51  56 N8        30.07R
CENTRAL PARK   FAIR      65  47  52 VRB5      30.10S
$$

NYZ005>009-017-018-044>046-055-056-290700-
CENTRAL


CITY           SKY/WX    TMP DP  RH WIND       PRES   REMARKS
FULTON         FAIR      52  49  89 CALM      30.14R
SYRACUSE       FAIR      57  53  86 CALM      30.13S
ROME           FAIR      53  50  89 CALM      30.14S
ELMIRA         FAIR      47  46  97 CALM      30.16R FOG
BINGHAMTON     MOCLDY    54  49  83 NW3       30.14S
MONTICELLO     FAIR      50  48  93 NW7       30.14S
$$

NYZ026>034-041>043-290700-
NORTH


CITY           SKY/WX    TMP DP  RH WIND       PRES   REMARKS
WATERTOWN      FAIR      48  44  86 SE3       30.13S
FORT DRUM      NOT AVBL
MASSENA        FAIR      52  51  97 CALM      30.12R
SARANAC LAKE   CLOUDY    54  50  86 CALM      30.11S
PLATTSBURGH    FAIR      57  52  83 VRB3      30.07R
$$

NYZ001>004-010>016-019>021-290700-
WEST


CITY           SKY/WX    TMP DP  RH WIND       PRES   REMARKS
NIAGARA FALLS  FAIR      52  47  83 CALM      30.15S
BUFFALO        FAIR      56  49  77 SE3       30.16S
DUNKIRK        CLOUDY    62  53  72 CALM      30.16S
JAMESTOWN      CLOUDY    48  46  93 CALM      30.19S
WELLSVILLE     FAIR      49  45  86 CALM      30.20S
ROCHESTER      FAIR      53  50  89 SW5       30.16R
PENN YAN       FAIR      57  50  77 W5        30.15S
$$

             KEY
       WCI = WIND CHILL INDEX
       VSB = VISIBILITY
       HX  = HEAT INDEX
$$


USA.gov is the U.S. government's official web portal to all federal, state and local government web resources and services.